• In Hungary
  • List of Countries
  • For 7 days
  • Water Temperature
  • Satellite Maps
  • Weather Map
  • News
  • Weather Widgets
  • user-avatar
    Login

    Hourly Weather Akalajon

    Today, 22 May, Tuesday

    Time Temperature Precipitation Wind Pressure Humidity
    00:00 +26°C° 0 mm 1 mps 754 mmHg 96%
    01:00 +26°C° 0 mm 1 mps 754 mmHg 97%
    02:00 +26°C° 0 mm 1 mps 754 mmHg 97%
    03:00 +26°C° 0 mm 1 mps 754 mmHg 97%
    04:00 +26°C° 0 mm 1 mps 754 mmHg 97%
    05:00 +26°C° 0.3 mm 1 mps 754 mmHg 97%
    06:00 +27°C° 0.3 mm 1 mps 754 mmHg 96%
    07:00 +27°C° 0.3 mm 1 mps 755 mmHg 95%
    08:00 +29°C° 0.1 mm 1 mps 755 mmHg 87%
    09:00 +30°C° 0.1 mm 1 mps 755 mmHg 79%
    10:00 +32°C° 0.1 mm 1 mps 756 mmHg 71%
    11:00 +33°C° 0.4 mm 1 mps 755 mmHg 67%
    12:00 +35°C° 0.4 mm 1 mps 755 mmHg 62%
    13:00 +37°C° 0.4 mm 2 mps 754 mmHg 58%
    14:00 +36°C° 0.7 mm 2 mps 754 mmHg 62%
    15:00 +35°C° 0.7 mm 2 mps 753 mmHg 66%
    16:00 +34°C° 0.7 mm 2 mps 752 mmHg 71%
    17:00 +31°C° 0.1 mm 2 mps 753 mmHg 77%
    18:00 +30°C° 0.1 mm 2 mps 753 mmHg 84%
    19:00 +29°C° 0.1 mm 2 mps 753 mmHg 90%
    20:00 +28°C° 0.2 mm 1 mps 754 mmHg 92%
    21:00 +28°C° 0.2 mm 1 mps 754 mmHg 93%
    22:00 +27°C° 0.2 mm 1 mps 755 mmHg 94%
    23:00 +27°C° 0 mm 1 mps 755 mmHg 95%

    Tomorrow, 23 May, Wednesday

    Time Temperature Precipitation Wind Pressure Humidity
    00:00 +27°C° 0 mm 1 mps 755 mmHg 95%
    01:00 +27°C° 0 mm 1 mps 755 mmHg 96%
    02:00 +27°C° 0 mm 1 mps 754 mmHg 97%
    03:00 +26°C° 0 mm 1 mps 754 mmHg 97%
    04:00 +26°C° 0 mm 1 mps 754 mmHg 98%
    05:00 +26°C° 0 mm 1 mps 754 mmHg 97%
    06:00 +27°C° 0 mm 1 mps 754 mmHg 96%
    07:00 +27°C° 0 mm 2 mps 755 mmHg 95%
    08:00 +28°C° 0 mm 1 mps 755 mmHg 89%
    09:00 +30°C° 0 mm 1 mps 756 mmHg 83%
    10:00 +31°C° 0 mm 1 mps 756 mmHg 77%
    11:00 +32°C° 0.1 mm 2 mps 756 mmHg 74%
    12:00 +32°C° 0.1 mm 2 mps 755 mmHg 71%
    13:00 +34°C° 0.1 mm 2 mps 755 mmHg 67%
    14:00 +34°C° 0.8 mm 2 mps 754 mmHg 70%
    15:00 +33°C° 0.8 mm 3 mps 754 mmHg 73%
    16:00 +33°C° 0.8 mm 3 mps 753 mmHg 76%
    17:00 +30°C° 0.3 mm 3 mps 753 mmHg 81%
    18:00 +29°C° 0.3 mm 2 mps 754 mmHg 87%
    19:00 +28°C° 0.3 mm 2 mps 754 mmHg 92%
    20:00 +28°C° 0 mm 2 mps 755 mmHg 93%
    21:00 +27°C° 0 mm 2 mps 755 mmHg 94%
    22:00 +27°C° 0 mm 1 mps 756 mmHg 96%
    23:00 +27°C° 0 mm 1 mps 756 mmHg 96%

    Day after tomorrow, 24 May, Thursday

    Time Temperature Precipitation Wind Pressure Humidity
    00:00 +27°C° 0 mm 2 mps 755 mmHg 96%
    01:00 +27°C° 0 mm 2 mps 755 mmHg 97%
    02:00 +27°C° 0 mm 2 mps 755 mmHg 97%
    03:00 +27°C° 0 mm 2 mps 754 mmHg 97%
    04:00 +27°C° 0 mm 2 mps 754 mmHg 96%
    05:00 +27°C° 0.1 mm 2 mps 754 mmHg 96%
    06:00 +27°C° 0.1 mm 2 mps 755 mmHg 95%
    07:00 +27°C° 0.1 mm 2 mps 755 mmHg 95%
    08:00 +28°C° 0 mm 2 mps 756 mmHg 88%
    09:00 +30°C° 0 mm 2 mps 756 mmHg 82%
    10:00 +31°C° 0 mm 2 mps 757 mmHg 75%
    11:00 +32°C° 0.4 mm 2 mps 756 mmHg 72%
    12:00 +34°C° 0.4 mm 2 mps 755 mmHg 68%
    13:00 +35°C° 0.4 mm 3 mps 755 mmHg 65%
    14:00 +33°C° 2 mm 3 mps 754 mmHg 72%
    15:00 +31°C° 2 mm 3 mps 753 mmHg 78%
    16:00 +30°C° 2 mm 3 mps 752 mmHg 85%
    17:00 +29°C° 0 mm 3 mps 753 mmHg 88%
    18:00 +28°C° 0 mm 2 mps 753 mmHg 91%
    19:00 +27°C° 0 mm 2 mps 753 mmHg 94%
    20:00 +27°C° 0 mm 2 mps 754 mmHg 94%
    21:00 +27°C° 0 mm 2 mps 755 mmHg 95%
    22:00 +27°C° 0 mm 2 mps 755 mmHg 96%
    23:00 +27°C° 0 mm 2 mps 755 mmHg 96%

    25 May, Friday

    Time Temperature Precipitation Wind Pressure Humidity
    00:00 +27°C° 0 mm 2 mps 755 mmHg 96%
    01:00 +26°C° 0 mm 2 mps 754 mmHg 96%
    02:00 +26°C° 0 mm 2 mps 754 mmHg 96%
    03:00 +26°C° 0 mm 2 mps 754 mmHg 96%
    04:00 +26°C° 0 mm 2 mps 753 mmHg 96%
    05:00 +26°C° 0 mm 1 mps 754 mmHg 96%
    06:00 +26°C° 0 mm 1 mps 754 mmHg 95%
    07:00 +27°C° 0 mm 1 mps 755 mmHg 94%
    08:00 +28°C° 0 mm 1 mps 755 mmHg 85%
    09:00 +30°C° 0 mm 1 mps 755 mmHg 76%
    10:00 +32°C° 0 mm 1 mps 756 mmHg 67%
    11:00 +32°C° 0.7 mm 2 mps 755 mmHg 69%
    12:00 +32°C° 0.7 mm 2 mps 755 mmHg 70%
    13:00 +32°C° 0.7 mm 2 mps 754 mmHg 72%
    14:00 +32°C° 1.2 mm 2 mps 753 mmHg 76%
    15:00 +31°C° 1.2 mm 2 mps 753 mmHg 79%
    16:00 +30°C° 1.2 mm 2 mps 752 mmHg 83%
    17:00 +29°C° 0.1 mm 2 mps 753 mmHg 87%
    18:00 +28°C° 0.1 mm 2 mps 753 mmHg 91%
    19:00 +27°C° 0.1 mm 1 mps 754 mmHg 95%
    20:00 +27°C° 0 mm 1 mps 754 mmHg 95%
    21:00 +27°C° 0 mm 1 mps 754 mmHg 96%
    22:00 +27°C° 0 mm 1 mps 755 mmHg 97%
    23:00 +26°C° 0 mm 1 mps 754 mmHg 97%

    26 May, Saturday

    Time Temperature Precipitation Wind Pressure Humidity
    00:00 +26°C° 0 mm 1 mps 754 mmHg 98%
    01:00 +26°C° 0 mm 2 mps 753 mmHg 98%
    02:00 +26°C° 0 mm 1 mps 753 mmHg 97%
    03:00 +26°C° 0 mm 1 mps 753 mmHg 97%
    04:00 +26°C° 0 mm 1 mps 753 mmHg 97%
    05:00 +26°C° 0 mm 1 mps 753 mmHg 96%
    06:00 +26°C° 0 mm 1 mps 754 mmHg 95%
    07:00 +27°C° 0 mm 1 mps 754 mmHg 94%
    08:00 +29°C° 0 mm 1 mps 755 mmHg 85%
    09:00 +31°C° 0 mm 1 mps 755 mmHg 76%
    10:00 +33°C° 0 mm 1 mps 755 mmHg 67%
    11:00 +33°C° 0.2 mm 1 mps 755 mmHg 65%
    12:00 +35°C° 0.2 mm 2 mps 754 mmHg 63%
    13:00 +36°C° 0.2 mm 2 mps 753 mmHg 60%
    14:00 +35°C° 1 mm 2 mps 752 mmHg 66%
    15:00 +34°C° 1 mm 2 mps 752 mmHg 71%
    16:00 +33°C° 1 mm 3 mps 751 mmHg 77%
    17:00 +30°C° 0.5 mm 2 mps 752 mmHg 82%
    18:00 +29°C° 0.5 mm 2 mps 753 mmHg 87%
    19:00 +28°C° 0.5 mm 1 mps 753 mmHg 92%
    20:00 +27°C° 0 mm 1 mps 754 mmHg 93%
    21:00 +27°C° 0 mm 1 mps 754 mmHg 95%
    22:00 +27°C° 0 mm 1 mps 755 mmHg 96%
    23:00 +27°C° 0.1 mm 1 mps 754 mmHg 96%

    27 May, Sunday

    Time Temperature Precipitation Wind Pressure Humidity
    00:00 +26°C° 0.1 mm 1 mps 754 mmHg 96%
    01:00 +24°C° 0.1 mm 0 mps 754 mmHg 97%
    02:00 +24°C° 0 mm 0 mps 754 mmHg 97%
    03:00 +24°C° 0 mm 0 mps 753 mmHg 97%
    04:00 +24°C° 0 mm 0 mps 753 mmHg 97%
    05:00 +24°C° 0 mm 0 mps 754 mmHg 97%
    06:00 +24°C° 0 mm 0 mps 754 mmHg 96%
    07:00 +24°C° 0 mm 0 mps 755 mmHg 95%
    08:00 +26°C° 0 mm 0 mps 755 mmHg 86%
    09:00 +30°C° 0 mm 1 mps 755 mmHg 77%
    10:00 +32°C° 0 mm 1 mps 756 mmHg 68%
    11:00 +33°C° 0.3 mm 1 mps 755 mmHg 67%
    12:00 +34°C° 0.3 mm 2 mps 754 mmHg 67%
    13:00 +34°C° 0.3 mm 2 mps 754 mmHg 66%
    14:00 +34°C° 0.5 mm 2 mps 753 mmHg 69%
    15:00 +33°C° 0.5 mm 3 mps 753 mmHg 72%
    16:00 +31°C° 0.5 mm 3 mps 752 mmHg 75%
    17:00 +30°C° 0.1 mm 2 mps 753 mmHg 80%
    18:00 +29°C° 0.1 mm 2 mps 754 mmHg 85%
    19:00 +28°C° 0.1 mm 2 mps 754 mmHg 90%
    20:00 +27°C° 0 mm 2 mps 755 mmHg 91%
    21:00 +27°C° 0 mm 2 mps 755 mmHg 93%
    22:00 +27°C° 0 mm 1 mps 756 mmHg 94%
    23:00 +27°C° 0 mm 1 mps 755 mmHg 94%
    Show more